Location: Cherryland
(37.6794°N, 122.1033°W)
Time: 14:29:15
(UTC+00:00)

Cosmos 2360 Rocket - Pass Details

Date: 14 December 2025
Orbit: 834 x 842 km, 71.0° (Epoch: 17 January)

Event Time Altitude Azimuth Distance (km) Brightness Sun altitude
Exits shadow 13:19:09 22° 346° (NNW) 1,774 3.6 -22.3°
Maximum altitude 13:22:55 71° 67° (ENE) 881 2.4 -21.6°
Drops below altitude 10° 13:28:29 10° 151° (SSE) 2,436 5.2 -20.6°
Sets 13:30:55 0° 154° (SSE) 3,366 5.9 -20.1°
